• In Uzbekistan
  • List of Countries
  • For 7 days
  • Water Temperature
  • Satellite Maps
  • Weather Map
  • Weather Widgets
  • user-avatar
    Login

    Hourly Weather Enilchek

    Today, 20 January, Sunday

    Time Temperature Precipitation Wind Pressure Humidity
    00:00 -17°C° 0 mm 3 mps 507 mmHg 81%
    01:00 -17°C° 0 mm 3 mps 507 mmHg 82%
    02:00 -18°C° 0 mm 3 mps 506 mmHg 83%
    03:00 -18°C° 0 mm 3 mps 506 mmHg 83%
    04:00 -18°C° 0 mm 3 mps 506 mmHg 84%
    05:00 -18°C° 0 mm 3 mps 506 mmHg 84%
    06:00 -18°C° 0 mm 3 mps 506 mmHg 85%
    07:00 -18°C° 0 mm 3 mps 505 mmHg 87%
    08:00 -18°C° 0 mm 3 mps 505 mmHg 88%
    09:00 -17°C° 0 mm 3 mps 505 mmHg 84%
    10:00 -17°C° 0 mm 4 mps 505 mmHg 80%
    11:00 -17°C° 0 mm 4 mps 506 mmHg 78%
    12:00 -16°C° 0 mm 4 mps 505 mmHg 76%
    13:00 -16°C° 0 mm 4 mps 505 mmHg 74%
    14:00 -15°C° 0 mm 4 mps 505 mmHg 72%
    15:00 -16°C° 0 mm 4 mps 505 mmHg 74%
    16:00 -16°C° 0 mm 4 mps 504 mmHg 76%
    17:00 -17°C° 0 mm 4 mps 504 mmHg 78%
    18:00 -16°C° 0 mm 3 mps 504 mmHg 79%
    19:00 -16°C° 0 mm 3 mps 504 mmHg 80%
    20:00 -17°C° 0 mm 3 mps 504 mmHg 82%
    21:00 -17°C° 0 mm 3 mps 503 mmHg 81%
    22:00 -16°C° 0 mm 2 mps 503 mmHg 80%
    23:00 -16°C° 0 mm 2 mps 503 mmHg 79%

    Tomorrow, 21 January, Monday

    Time Temperature Precipitation Wind Pressure Humidity
    00:00 -16°C° 0 mm 2 mps 503 mmHg 76%
    01:00 -14°C° 0 mm 1 mps 503 mmHg 73%
    02:00 -14°C° 0 mm 1 mps 503 mmHg 70%
    03:00 -14°C° 0 mm 1 mps 503 mmHg 70%
    04:00 -13°C° 0 mm 1 mps 504 mmHg 69%
    05:00 -13°C° 0 mm 1 mps 504 mmHg 69%
    06:00 -13°C° 0 mm 1 mps 505 mmHg 69%
    07:00 -12°C° 0 mm 1 mps 505 mmHg 70%
    08:00 -12°C° 0 mm 0 mps 506 mmHg 70%
    09:00 -11°C° 0 mm 0 mps 506 mmHg 67%
    10:00 -10°C° 0 mm 0 mps 507 mmHg 64%
    11:00 -9°C° 0 mm 1 mps 508 mmHg 60%
    12:00 -9°C° 0 mm 1 mps 508 mmHg 61%
    13:00 -9°C° 0 mm 1 mps 508 mmHg 62%
    14:00 -8°C° 0 mm 1 mps 508 mmHg 62%
    15:00 -10°C° 0 mm 2 mps 508 mmHg 66%
    16:00 -12°C° 0 mm 2 mps 508 mmHg 69%
    17:00 -13°C° 0 mm 2 mps 507 mmHg 73%
    18:00 -14°C° 0 mm 2 mps 507 mmHg 73%
    19:00 -14°C° 0 mm 2 mps 507 mmHg 74%
    20:00 -15°C° 0 mm 2 mps 507 mmHg 75%
    21:00 -15°C° 0 mm 2 mps 507 mmHg 74%
    22:00 -14°C° 0 mm 1 mps 506 mmHg 73%
    23:00 -14°C° 0 mm 1 mps 506 mmHg 72%

    Day after tomorrow, 22 January, Tuesday

    Time Temperature Precipitation Wind Pressure Humidity
    00:00 -14°C° 0 mm 1 mps 505 mmHg 70%
    01:00 -15°C° 0 mm 1 mps 505 mmHg 67%
    02:00 -15°C° 0 mm 1 mps 505 mmHg 65%
    03:00 -15°C° 0 mm 1 mps 505 mmHg 63%
    04:00 -15°C° 0 mm 1 mps 504 mmHg 60%
    05:00 -15°C° 0 mm 1 mps 504 mmHg 58%
    06:00 -15°C° 0 mm 1 mps 504 mmHg 57%
    07:00 -15°C° 0 mm 1 mps 504 mmHg 57%
    08:00 -16°C° 0 mm 2 mps 504 mmHg 57%
    09:00 -15°C° 0 mm 2 mps 505 mmHg 59%
    10:00 -14°C° 0 mm 2 mps 505 mmHg 60%
    11:00 -13°C° 0 mm 3 mps 506 mmHg 61%
    12:00 -13°C° 0 mm 3 mps 505 mmHg 61%
    13:00 -13°C° 0 mm 3 mps 505 mmHg 60%
    14:00 -10°C° 0 mm 2 mps 505 mmHg 60%
    15:00 -12°C° 0 mm 2 mps 504 mmHg 61%
    16:00 -13°C° 0 mm 2 mps 504 mmHg 62%
    17:00 -14°C° 0 mm 2 mps 503 mmHg 63%
    18:00 -15°C° 0 mm 2 mps 503 mmHg 65%
    19:00 -15°C° 0 mm 2 mps 503 mmHg 67%
    20:00 -16°C° 0 mm 2 mps 503 mmHg 69%
    21:00 -16°C° 0 mm 2 mps 503 mmHg 70%
    22:00 -16°C° 0 mm 2 mps 503 mmHg 70%
    23:00 -15°C° 0 mm 2 mps 503 mmHg 71%

    23 January, Wednesday

    Time Temperature Precipitation Wind Pressure Humidity
    00:00 -15°C° 0 mm 2 mps 503 mmHg 71%
    01:00 -15°C° 0 mm 2 mps 503 mmHg 72%
    02:00 -13°C° 0 mm 1 mps 503 mmHg 73%
    03:00 -13°C° 0 mm 1 mps 502 mmHg 73%
    04:00 -14°C° 0 mm 1 mps 502 mmHg 74%
    05:00 -14°C° 0 mm 1 mps 501 mmHg 75%
    06:00 -14°C° 0 mm 1 mps 502 mmHg 74%
    07:00 -14°C° 0 mm 1 mps 502 mmHg 73%
    08:00 -14°C° 0 mm 1 mps 502 mmHg 72%
    09:00 -12°C° 0 mm 1 mps 503 mmHg 68%
    10:00 -11°C° 0 mm 1 mps 504 mmHg 65%
    11:00 -10°C° 0 mm 1 mps 505 mmHg 61%
    12:00 -9°C° 0 mm 1 mps 505 mmHg 61%
    13:00 -9°C° 0 mm 0 mps 505 mmHg 61%
    14:00 -8°C° 0 mm 0 mps 505 mmHg 60%
    15:00 -9°C° 0 mm 1 mps 505 mmHg 64%
    16:00 -10°C° 0 mm 1 mps 505 mmHg 67%
    17:00 -10°C° 0 mm 1 mps 505 mmHg 71%
    18:00 -11°C° 0 mm 1 mps 505 mmHg 73%
    19:00 -11°C° 0 mm 1 mps 505 mmHg 74%
    20:00 -12°C° 0 mm 1 mps 506 mmHg 76%
    21:00 -12°C° 0 mm 1 mps 506 mmHg 76%
    22:00 -12°C° 0 mm 1 mps 506 mmHg 77%
    23:00 -12°C° 0 mm 1 mps 506 mmHg 77%

    24 January, Thursday

    Time Temperature Precipitation Wind Pressure Humidity
    00:00 -13°C° 0 mm 1 mps 506 mmHg 77%
    01:00 -13°C° 0 mm 1 mps 506 mmHg 78%
    02:00 -13°C° 0 mm 1 mps 506 mmHg 78%
    03:00 -13°C° 0 mm 1 mps 506 mmHg 78%
    04:00 -14°C° 0 mm 1 mps 505 mmHg 78%
    05:00 -14°C° 0 mm 1 mps 505 mmHg 78%
    06:00 -14°C° 0 mm 1 mps 506 mmHg 76%
    07:00 -14°C° 0 mm 1 mps 506 mmHg 75%
    08:00 -14°C° 0 mm 1 mps 506 mmHg 73%
    09:00 -13°C° 0 mm 1 mps 507 mmHg 69%
    10:00 -12°C° 0 mm 0 mps 508 mmHg 65%
    11:00 -11°C° 0 mm 0 mps 508 mmHg 60%
    12:00 -10°C° 0 mm 0 mps 508 mmHg 56%
    13:00 -10°C° 0 mm 0 mps 508 mmHg 53%
    14:00 -10°C° 0 mm 0 mps 508 mmHg 49%
    15:00 -11°C° 0 mm 0 mps 508 mmHg 49%
    16:00 -11°C° 0 mm 1 mps 508 mmHg 50%
    17:00 -12°C° 0 mm 1 mps 508 mmHg 50%
    18:00 -13°C° 0 mm 1 mps 508 mmHg 49%
    19:00 -13°C° 0 mm 1 mps 508 mmHg 47%
    20:00 -14°C° 0 mm 1 mps 508 mmHg 46%
    21:00 -14°C° 0 mm 1 mps 508 mmHg 42%
    22:00 -14°C° 0 mm 1 mps 508 mmHg 39%
    23:00 -15°C° 0 mm 1 mps 507 mmHg 36%

    25 January, Friday

    Time Temperature Precipitation Wind Pressure Humidity
    00:00 -15°C° 0 mm 1 mps 507 mmHg 33%
    01:00 -16°C° 0 mm 1 mps 507 mmHg 30%
    02:00 -16°C° 0 mm 1 mps 506 mmHg 27%
    03:00 -16°C° 0 mm 1 mps 506 mmHg 25%
    04:00 -16°C° 0 mm 1 mps 506 mmHg 24%
    05:00 -17°C° 0 mm 1 mps 505 mmHg 22%
    06:00 -17°C° 0 mm 1 mps 506 mmHg 25%
    07:00 -19°C° 0 mm 2 mps 506 mmHg 27%
    08:00 -19°C° 0 mm 2 mps 506 mmHg 29%
    09:00 -17°C° 0 mm 2 mps 507 mmHg 33%
    10:00 -16°C° 0 mm 2 mps 507 mmHg 38%
    11:00 -15°C° 0 mm 2 mps 508 mmHg 42%
    12:00 -14°C° 0 mm 2 mps 508 mmHg 44%
    13:00 -14°C° 0 mm 2 mps 508 mmHg 45%
    14:00 -14°C° 0 mm 2 mps 507 mmHg 46%
    15:00 -15°C° 0 mm 2 mps 507 mmHg 48%
    16:00 -14°C° 0 mm 1 mps 507 mmHg 49%
    17:00 -15°C° 0 mm 1 mps 506 mmHg 51%
    18:00 -15°C° 0 mm 1 mps 506 mmHg 52%
    19:00 -15°C° 0 mm 1 mps 506 mmHg 52%
    20:00 -16°C° 0 mm 1 mps 507 mmHg 53%
    21:00 -16°C° 0 mm 1 mps 506 mmHg 56%
    22:00 -16°C° 0 mm 1 mps 506 mmHg 58%
    23:00 -17°C° 0 mm 1 mps 506 mmHg 60%
    Show more